Regional Weather Roundup
Issued by NWS

Home | Current Version | Previous Version | Graphics & Text | Print | Product List | Glossary On
Versions: 1 2 3 4 5 6 7 8 9 10 11 12 13 14 15 16 17 18 19 20 21 22 23 24 25 26 27 28 29 30 31 32 33 34 35 36 37 38 39 40 41 42 43 44 45 46 47 48 49 50
000
ASUS43 KLOT 011803
RWRIL

ILLINOIS REGIONAL WEATHER ROUNDUP
NATIONAL WEATHER SERVICE CHICAGO/ROMEOVILLE IL
1200 PM CST WED MAR 01 2017

NOTE: "FAIR" INDICATES FEW OR NO CLOUDS BELOW 12,000 FEET WITH NO
SIGNIFICANT WEATHER AND/OR OBSTRUCTIONS TO VISIBILITY.

* THESE STATIONS ARE NOT UNDER NWS QUALITY CONTROL. THEY ALSO MAY NOT
  REPORT WEATHER SUCH AS PRECIPITATION OR FOG.

ILZ001-002-007-009-015-016-024-011900-
NORTHWEST ILLINOIS

CITY           SKY/WX    TMP DP  RH WIND       PRES   REMARKS
MOLINE         CLOUDY    38  31  76 W20       29.77R WCI  28
6HR MIN TEMP:  37; 6HR MAX TEMP:  43; 6HR PCP:  0.01;

STERLING*      CLOUDY    37  34  89 W26G33    29.70R WCI  25
$$

ILZ003-004-008-010-011-017-018-011900-
NORTH CENTRAL ILLINOIS

CITY           SKY/WX    TMP DP  RH WIND       PRES   REMARKS
ROCKFORD       LGT RAIN  38  34  85 NW17      29.66R WCI  28
6HR MIN TEMP:  38; 6HR MAX TEMP:  40; 6HR PCP:  0.02;

FREEPORT*      DRIZZLE   36  34  94 W20G28    29.69R WCI  25
ROCHELLE*      DRIZZLE   37  36  94 W23G30    29.67R WCI  26
DE KALB*       CLOUDY    38  36  93 W18G28    29.64R FOG     WCI  28
PERU*          CLOUDY    37  33  87 W25G39    29.71R WCI  25
$$

ILZ005-006-012>014-019>023-011900-
NORTHEAST ILLINOIS

CITY           SKY/WX    TMP DP  RH WIND       PRES   REMARKS
CHICAGO-OHARE  CLOUDY    41  35  79 W18G25    29.59R
6HR MIN TEMP:  39; 6HR MAX TEMP:  42; 6HR PCP:  0.06;

CHICAGO-MIDWAY CLOUDY    42  36  79 NW16G24   29.60R
6HR MIN TEMP:  40; 6HR MAX TEMP:  43; 6HR PCP:  0.02;

AURORA         CLOUDY    40  36  86 W24G30    29.63R FOG
6HR MIN TEMP:  40; 6HR MAX TEMP:  45; 6HR PCP:  0.01;

LANSING*       CLOUDY    42  39  88 W24G38    29.61R
WAUKEGAN       CLOUDY    38  32  79 W13G23    29.58R WCI  30
6HR MIN TEMP:  37; 6HR MAX TEMP:  38; 6HR PCP:  0.02;

DUPAGE AIRPORT CLOUDY    40  34  79 W23       29.61R
6HR MIN TEMP:  39; 6HR MAX TEMP:  44; 6HR PCP:  0.05;

KANKAKEE*      CLOUDY    41  38  89 W26G35    29.67R
WHEELING       CLOUDY    39  34  82 NW15G24   29.60R WCI  31
6HR MIN TEMP:  38; 6HR MAX TEMP:  40; 6HR PCP:  0.03;

MORRIS*        CLOUDY    38  37  93 W31G41    29.65R FOG     WCI  26
ROMEOVILLE*    CLOUDY    40  40  98 W18G25    29.63R FOG
NORTHERLY ISL    N/A     40  35  83 W13         N/A
$$

LMZ740>746-011900-
SOUTHERN LAKE MICHIGAN

STATION/POSITION SKY/WX   TEMP    WIND        PRES    VSBY  WAVE
                          AIR SEA DIR/SP/G                  HT/PER
                          (F)     (DEG/KT/KT) (MB)    (MI)  (FT/S)
HARRISON CRIB              41     290/ 25/ 32   N/A
BURNHAM HARBOR             41     290/ 11/ 20   N/A
CALUMET HARBOR             41     260/ 11/ 18 1001.5R
BURNS HARBOR               37     280/  7/  9 1002.7R
MICHIGAN CITY              36     290/ 14/ 16   N/A
$$

ILZ025>027-034>036-040-047-049-050-058-095>099-011900-
WEST-CENTRAL ILLINOIS

CITY           SKY/WX    TMP DP  RH WIND       PRES   REMARKS
QUINCY         CLOUDY    41  32  70 W22G40    29.92R
GALESBURG*     CLOUDY    37  33  84 W28G36      N/A  WCI  25
MACOMB*        CLOUDY    40  35  82 W31G43    29.86R
JACKSONVILLE*  CLOUDY    40  34  79 W24G30    29.88R
PITTSFIELD*    CLOUDY    42  33  70 W22G31    29.93R
$$

ILZ028>032-037-038-041>044-048-051>054-059>061-011900-
CENTRAL ILLINOIS

CITY           SKY/WX    TMP DP  RH WIND       PRES   REMARKS
PONTIAC        CLOUDY    40  39  95 W31G39    29.72R
BLOOMINGTON    CLOUDY    39  36  89 W22G36    29.76R WCI  29
DECATUR        CLOUDY    43  34  70 W24G41    29.81R
PEORIA         CLOUDY    39  33  79 W21G36    29.79R WCI  29
6HR MIN TEMP:  39; 6HR MAX TEMP:  45;

LACON*         CLOUDY    38  33  82 W15G31    29.76R WCI  30
LINCOLN*       CLOUDY    42  35  76 W16G26    29.82R
SPRINGFIELD    CLOUDY    42  34  73 W25G41    29.85R
6HR MIN TEMP:  42; 6HR MAX TEMP:  52;

TAYLORVILLE    CLOUDY    43  36  76 W26G38    29.85R
6HR MIN TEMP:  42; 6HR MAX TEMP:  52;

$$

ILZ033-039-045-046-055>057-062-063-011900-
EAST-CENTRAL ILLINOIS

CITY           SKY/WX    TMP DP  RH WIND       PRES   REMARKS
CHAMPAIGN      CLOUDY    43  37  79 W28G39    29.76R
RANTOUL*       CLOUDY    44  39  84 W32G41    29.73R
MATTOON        CLOUDY    45  40  82 W29G43    29.78R
PARIS*         CLOUDY    46  40  82 W33G41    29.76R
$$

ILZ079-100>102-011900-
SOUTHWEST ILLINOIS

CITY           SKY/WX    TMP DP  RH WIND       PRES   REMARKS
ALTON          CLOUDY    45  34  65 MISG      29.91R
BELLEVILLE     PTSUNNY   52  37  58 W15G22    29.90R
CAHOKIA*       PTSUNNY   50  34  54 NW24G32   29.93R
SPARTA*        CLOUDY    48  38  69 W15G28    29.93R
$$

ILZ064>066-069>071-074>076-080>082-084>086-088>090-092>094-011900-
SOUTH-CENTRAL ILLINOIS

CITY           SKY/WX    TMP DP  RH WIND       PRES   REMARKS
CARBONDALE     PTSUNNY   53  43  68 NW20      29.90R
6HR MIN TEMP:  51; 6HR MAX TEMP:  56;

CAIRO*         SUNNY     60  44  57 W16G26    29.89R
EFFINGHAM*     CLOUDY    47  41  81 W25G37    29.84R
MARION         CLOUDY    54  45  71 W14G25    29.91R
MT. VERNON     CLOUDY    48  40  73 W16G22    29.89R
CENTRALIA*     CLOUDY    47  40  76 W24G31    29.88R
SALEM*         CLOUDY    47  40  76 W21G30    29.88R
METROPOLIS*    PTSUNNY   60  46  60 W14G21    29.88R
$$

ILZ067-068-072-073-078-083-087-091-011900-
SOUTHEAST ILLINOIS

CITY           SKY/WX    TMP DP  RH WIND       PRES   REMARKS
LAWRENCEVILLE  CLOUDY    50  43  77 W30G36    29.81R
FLORA*         CLOUDY    48  42  77 W23G31    29.86R
FAIRFIELD*     CLOUDY    48  40  74 W10G21    29.86R
HARRISBURG*    CLOUDY    52  44  75 NW21G26   29.89R
ROBINSON*      CLOUDY    46  42  84 W22G32    29.81R
$$

ABBREVIATIONS USED IN REMARKS
   TC - TEMPERATURE IN CELSIUS
  WCI - WIND CHILL INDEX
   HX - HEAT INDEX
  VSB - VISIBILITY
$$




USA.gov is the U.S. government's official web portal to all federal, state and local government web resources and services.